www.pogodaiklimat.ru

Погода и климат >> Архив погоды >> Южная Африка >> Принс Альберт


ПОГОДА в Принс Альберт

  • Прогноз погоды в Принс Альберт
  • Монитор погоды в Принс Альберт

АРХИВ ПОГОДЫ в Принс Альберт

Время (UTC), дата Ветер
(напр.,м/с)
 
Видим.   Явления Облачность Т
(С)
Тd
(С)
f
(%)
Тe
(С)
Тes
(С)
Комфортность P
(гПа)
Po
(гПа)
Тmin
(С)
Tmax
(С)
R
(мм)
R24
(мм)
S
(см)
03 12.08 З 1 н/о н/о +3.4 -0.4 76 +2 +2 959.6 +3.0 +19.4
06 12.08 В 1 н/о н/о +0.5 -1.2 88 -2 -2 961.1 -0.7
09 12.08 З 4 н/о н/о +13.2 +3.9 53 +12 +12 961.3 -0.7 +13.2
12 12.08 ЮЗ 3 н/о н/о +16.1 +1.8 38 +16 +16 959.3 -0.7 +16.1
15 12.08 З 3 н/о н/о +16.4 +1.0 35 +16 +16 959.4 +15.6 +17.3
18 12.08 штиль 0 н/о н/о +5.5 +1.8 77 +5 +5 960.2 +5.5 +17.3
21 12.08 В 2 н/о н/о +2.9 -1.0 75 0 0 961.6 +2.2 +17.3
00 13.08 В 2 н/о н/о +4.8 -1.6 63 +2 +2 961.8 +2.2 +17.3
03 13.08 В 2 н/о н/о +2.4 -1.7 74 0 0 961.1 +2.2 +17.3
06 13.08 В 2 н/о н/о +3.5 -1.2 71 +1 +1 962.8 +1.6
09 13.08 З 1 н/о н/о +13.8 +1.1 42 +14 +14 963.3 +1.6 +13.9
12 13.08 З 3 н/о н/о +18.2 +1.3 32 +18 +18 961.0 +1.6 +18.2
15 13.08 С 1 н/о н/о +19.6 -0.8 25 +21 +21 комфорт 959.8 +17.9 +20.1
18 13.08 В 2 н/о н/о +8.0 -0.9 53 +6 +6 961.4 +7.1 +20.1
21 13.08 СВ 1 н/о н/о +3.2 -2.3 67 +2 +2 963.2 +3.2 +20.1
00 14.08 СЗ 2 н/о н/о +2.0 -2.3 73 -0 -0 964.3 +1.4 +20.1
03 14.08 СВ 1 н/о н/о +3.0 -1.7 71 +2 +2 964.1 +0.9 +20.1
06 14.08 В 2 н/о н/о +3.4 -0.4 76 +1 +1 967.3 +0.9
09 14.08 СЗ 1 н/о н/о +16.1 +4.2 45 +17 +17 968.9 +0.9 +16.1
12 14.08 СВ 2 н/о н/о +20.2 +4.4 35 +22 +22 комфорт 966.5 +0.9 +20.2
15 14.08 С 1 н/о н/о +21.6 +3.9 31 +22 +22 комфорт 966.2 +20.4 +22.8
18 14.08 В 1 н/о н/о +8.8 +2.4 64 +8 +8 967.2 +8.7 +22.8
21 14.08 В 2 н/о н/о +10.3 +1.1 53 +9 +9 968.6 +7.4 +22.8
00 15.08 В 2 н/о н/о +10.2 +1.3 54 +10 +10 967.6 +7.4 +22.8
03 15.08 штиль 0 н/о н/о +2.9 -0.2 80 +2 +2 966.6 +2.9 +22.8
06 15.08 В 1 н/о н/о +5.3 +2.1 80 +4 +4 967.5 +1.8
09 15.08 С 1 н/о н/о +17.1 +4.2 42 +18 +18 967.3 +1.8 +17.1
12 15.08 З 1 н/о н/о +23.8 -0.9 19 +22 +22 комфорт 964.1 +1.8 +23.9
15 15.08 штиль 0 н/о н/о +26.6 -3.8 13 +24 +24 комфорт 961.8 +24.2 +27.6
18 15.08 В 2 н/о н/о +8.7 -2.2 46 +8 +8 962.1 +8.5 +27.6
21 15.08 В 2 н/о н/о +10.0 -6.7 30 +9 +9 962.4 +8.3 +27.6
00 16.08 В 2 н/о н/о +9.2 -7.0 31 +8 +8 961.0 +8.3 +27.6
03 16.08 В 2 н/о н/о +6.5 -4.5 45 +5 +5 960.8 +6.5 +27.6
06 16.08 В 2 н/о н/о +7.5 -6.6 36 +6 +6 961.1 +3.6
09 16.08 З 1 н/о н/о +19.7 -3.7 20 +21 +21 комфорт 962.0 +3.6 +19.7
12 16.08 ЮЗ 2 н/о н/о +26.4 -3.9 13 +24 +24 комфорт 958.8 +3.6 +26.8
15 16.08 Ю 4 н/о н/о +25.9 +0.7 19 +24 +24 комфорт 958.5 +25.9 +29.7
18 16.08 В 1 н/о н/о +13.5 +0.2 40 +14 +14 960.3 +13.5 +29.7
00 17.08 В 3 н/о н/о +11.2 +2.5 55 +10 +10 963.4 +8.0 +29.7
03 17.08 В 3 н/о н/о +10.1 +4.0 66 +8 +8 963.8 +8.0 +29.7
06 17.08 В 2 н/о н/о +9.5 +4.9 73 +8 +8 965.8 +7.2
09 17.08 В 4 н/о н/о +17.8 +7.0 49 +18 +18 964.5 +7.2 +17.9
12 17.08 В 4 н/о н/о +21.5 +5.9 36 +22 +22 комфорт 961.3 +7.2 +21.7
15 17.08 В 3 н/о н/о +22.8 +5.4 32 +23 +23 комфорт 958.6 +22.1 +23.5
18 17.08 В 2 н/о н/о +17.3 +4.7 43 +18 +18 959.9 +17.3 +23.5
21 17.08 В 4 н/о н/о +14.3 +7.6 64 +13 +13 959.0 +14.3 +23.5
00 18.08 В 3 н/о н/о +12.2 +7.9 75 +11 +11 958.9 +12.2 +23.5
03 18.08 В 3 н/о н/о +10.1 +7.3 83 +8 +8 958.1 +10.1 +23.5
06 18.08 В 2 н/о н/о +9.7 +7.6 87 +8 +8 958.8 +8.9
09 18.08 В 2 н/о н/о +17.0 +8.7 58 +18 +18 957.5 +8.9 +17.0
12 18.08 ЮЗ 1 н/о н/о +24.3 +7.6 34 +25 +25 комфорт 954.4 +8.9 +24.3
15 18.08 ЮЗ 2 н/о н/о +25.8 +5.6 27 +25 +25 комфорт 953.5 +23.8 +26.2
18 18.08 В 2 н/о н/о +12.1 +4.6 60 +12 +12 955.2 +12.1 +26.2
21 18.08 З 6 н/о н/о +18.7 -1.5 25 +18 +18 956.9 +11.0 +26.2
00 19.08 Ю 3 н/о н/о +13.9 +0.9 41 +13 +13 958.5 +11.0 +26.2

 

Местоположение метеостанции Принс Альберт (Южная Африка): широта -33.18 долгота 22.07 высота над уровнем моря 544 м.

В архиве по умолчанию представлена погода в Принс Альберт за последнюю неделю. Архивные данные за месяц целиком и за предыдущие месяцы, начиная с января 2011 года, Вы можете получить, выбрав интересующий диапазон дат из раскрывающегося списка и нажав кнопку "Ввод!".


*Определитесь, кто Вы:
робот инопланетянин человек

Внимание! Время в таблицах - всемирное. Для получения местного времени необходимо прибавить поправку, которая равна 2 ч.

Смотрите также архив погоды в соседних городах и на ближайших метеорологических станциях:

Погода в Ледисмите (Южная Африка) (76 км)
Погода в Аэропорту Джордж (Южная Африка) (97 км)
Погода в Бофорт-Уэсте (Южная Африка) (103 км)
Погода на Мысе Mossel Bay (Южная Африка) (111 км)
Погода в Лайнгсбурге (Южная Африка) (112 км)
Погода в Риверсдейле (Южная Африка) (126 км)
Погода в Уиллоуморе (Южная Африка) (134 км)
Погода в Найсне (Южная Африка) (135 км)
Погода в Стилбай (Южная Африка) (146 км)
Погода в Фрейзербурге (Южная Африка) (150 км)

Пояснения к столбцам:

Ветер - указаны скорость ветра в м/с - средняя за 10 мин, порывы в срок и между сроками (в фигурных скобках) и направление, откуда дует ветер: С - северный, СВ - северо-восточный, В - восточный, ЮВ - юго-восточный, Ю - южный, ЮЗ - юго-западный, З - западный, СЗ - северо-западный.
Видимость - горизонтальная дальность видимости в метрах или километрах. При видимости от 1 до 10 км при отсутствии осадков обычно наблюдается дымка, при ухудшении видимости до 1 км и менее - туман. В сухую погоду видимость может ухудшаться дымом, пылью или мглою.
Явления - указаны атмосферные явления, наблюдавшиеся в срок или в последний час перед сроком; фигурными скобками обозначены явления, наблюдавшиеся между сроками (за 1-3 часа до срока); квадратными скобками обозначены град или гололедные отложения с указанием их диаметра в мм.
Облачность - указаны через наклонную черту общая и нижняя облачность в баллах и высота нижней границы облаков в метрах; квадратными скобками обозначены формы облаков: Ci - перистые, Cs - перисто-слоистые, Cc - перисто-кучевые, Ac - высококучевые, As - высокослоистые, Sc - слоисто-кучевые, Ns - слоисто-дождевые, Cu - кучевые, Cb - кучево-дождевые. Подробнее классификацию облаков см. в Атласе облаков (PDF).
T - Температура воздуха - температура, измеренная на высоте 2 м над землей.
Td - Температура точки росы - температура, при понижении до которой содержащийся в воздухе водяной пар достигнет насыщения.
f - Относительная влажность воздуха - влажноcть воздуха, измеренная на высоте 2 м над землей.
Te - Эффективная температура - температура, которую ощущает одетый по сезону человек в тени. Характеристика душности погоды. При расчете учитывается влияние влажности воздуха и скорости ветра на теплоощущения человека.
Tes - Эффективная температура на солнце - температура, которую ощущает человек, с поправкой на солнечный нагрев. Характеристика знойности погоды. Зависит от высоты солнца над горизонтом, облачности и скорости ветра. Ночью, в пасмурную погоду, а также при ветре 12 м/с и более поправка равна нулю.
P - Атмосферное давление - приведенное к уровню моря атмосферное давление.
Po - Атмосферное давление - измеренное на уровне метеостанции атмосферное давление.
Tmin - Минимальная температура - минимум температуры воздуха на высоте 2 м над землей.
Tmax - Максимальная температура - максимум температуры воздуха на высоте 2 м над землей.
R - Количество осадков - Количество выпавших осадков за период времени, мм. При наведении курсора мыши на число - период времени, за который выпало указанное количество осадков.
R24 - Количество осадков - Количество выпавших осадков за 24 часа, мм.
S - Снежный покров - Высота снежного покрова, см. При наведении курсора мыши на число - состояние снежного покрова и степень покрытия местности в баллах.